Regional Weather Roundup
Issued by NWS

Home | Current Version | Previous Version | Text Only | Print | Product List | Glossary Off
Versions: 1 2 3 4 5 6 7 8 9 10 11 12 13 14 15 16 17 18 19 20 21 22 23 24 25 26 27 28 29 30 31 32 33 34 35 36 37 38 39 40 41 42 43 44 45 46 47 48 49 50

000
ASUS43 KTOP 200259
RWRKS

WEATHER ROUNDUP FOR KANSAS
NATIONAL WEATHER SERVICE GOODLAND KS
1000 PM CDT WED JUL 19 2017

NOTE:  "FAIR" INDICATES FEW OR NO CLOUDS BELOW 12,000 FEET WITH NO
SIGNIFICANT WEATHER AND/OR OBSTRUCTIONS TO VISIBILITY.

KSZ001>006-013>018-027>032-041>047-200400-
NORTHWEST KANSAS

CITY           SKY/WX    TMP DP  RH WIND       PRES   REMARKS
GOODLAND       CLEAR     78  62  57 S9        30.00R
HAYS           CLEAR     89  59  36 S14       29.96R
HILL CITY      CLEAR     88  59  37 S6        29.96R
RUSSELL        CLEAR     88  59  37 S12       29.95R
$$

KSZ061>065-074>080-084>089-200400-
SOUTHWEST KANSAS

CITY           SKY/WX    TMP DP  RH WIND       PRES   REMARKS
DODGE CITY     CLEAR     85  61  44 S14       30.00R
ELKHART          N/A     79  49  35 S9          N/A
GARDEN CITY    CLEAR     80  61  52 S8        30.00R
LIBERAL        CLEAR     80  59  48 S8        30.03R
$$

KSZ066>073-081>083-090>101-200400-
SOUTHEAST KANSAS

CITY           SKY/WX    TMP DP  RH WIND       PRES   REMARKS
CHANUTE        CLEAR     83  72  69 S8        30.03R
COFFEYVILLE    CLEAR     83  73  72 SE9       30.03R
HUTCHINSON     CLEAR     89  63  41 S14       29.98R
MEDICINE LODGE   N/A     88  61  40 S7        29.98R
NEWTON         CLEAR     86  66  51 S15       30.01R
PARSONS        CLEAR     83  72  69 S6        30.04R
WICHITA INTL   CLEAR     85  67  54 S12       29.99R
WICHITA JABRA  CLEAR     86  66  51 S14       30.00R
WICHITA MCCONL CLEAR     87  65  48 S14       30.01R
WINFIELD       CLEAR     84  67  56 S8        30.03R
$$

KSZ007>012-019>026-033>040-048>060-102>105-200400-
NORTHEAST KANSAS

CITY           SKY/WX    TMP DP  RH WIND       PRES   REMARKS
CONCORDIA      CLEAR     85  65  51 S12       29.95R
EMPORIA        CLEAR     84  70  62 S13       30.01R
LAWRENCE       PTCLDY    81  75  82 SE7       30.01R
MANHATTAN      CLEAR     88  68  51 S5        29.97R
OLATHE IND     PTCLDY    83  72  69 S8        30.04R
OLATHE EXE     CLOUDY    80  73  79 S9        30.04R
SALINA         CLEAR     90  67  46 S13       29.96R
TOPEKA BILLARD CLEAR     83  75  77 SE7       30.00R
TOPEKA FORBES  CLEAR     84  74  71 SE7       30.01R
$$




USA.gov is the U.S. government's official web portal to all federal, state and local government web resources and services.